This is the latest recevied weather packets stored in our database for station/object VU3IZK-13. If no packets are shown the sender has not sent any weather packets the latest 10 day(s).
| Time | Temp. | Humidity | Pressure | Rain* | Wind** | Luminosity | Snow |
|---|---|---|---|---|---|---|---|
| 1777437906 | 31.67° C | 29% | 0 hPa | 0 mm | - | - | - |
| 1777437025 | 31.11° C | 30% | 0 hPa | 0 mm | - | - | - |
| 1777435243 | 30° C | 29% | 0 hPa | 0 mm | - | - | - |
| 1777434317 | 29.44° C | 32% | 0 hPa | 0 mm | - | - | - |
| 1777433418 | 28.33° C | 37% | 0 hPa | 0 mm | - | - | - |
| 1777432519 | 27.78° C | 38% | 0 hPa | 0 mm | - | - | - |
| 1777431641 | 26.67° C | 42% | 0 hPa | 0 mm | - | - | - |
| 1777430720 | 26.11° C | 52% | 0 hPa | 0 mm | - | - | - |
| 1777429821 | 25.56° C | 52% | 0 hPa | 0 mm | - | - | - |
| 1777428921 | 25° C | 55% | 0 hPa | 0 mm | - | - | - |
| 1777428042 | 24.44° C | 60% | 0 hPa | 0 mm | - | - | - |
| 1777427123 | 23.89° C | 64% | 0 hPa | 0 mm | - | - | - |
| 1777426223 | 23.33° C | 70% | 0 hPa | 1.02 mm | - | - | - |
| 1777425324 | 23.33° C | 72% | 0 hPa | 1.02 mm | - | - | - |
| 1777424402 | 23.33° C | 75% | 0 hPa | 1.02 mm | - | - | - |
| 1777423526 | 22.78° C | 79% | 0 hPa | 0.25 mm | - | - | - |
| 1777422620 | 22.22° C | 83% | 0 hPa | 0 mm | - | - | - |
| 1777421745 | 22.22° C | 87% | 0 hPa | 0 mm | - | - | - |
| 1777420845 | 22.22° C | 86% | 0 hPa | 0 mm | - | - | - |
| 1777419924 | 22.78° C | 88% | 0 hPa | 0 mm | - | - | - |
| 1777419005 | 22.78° C | 87% | 0 hPa | 0 mm | - | - | - |
| 1777418104 | 22.78° C | 88% | 0 hPa | 0 mm | - | - | - |
| 1777417204 | 22.78° C | 87% | 0 hPa | 0 mm | - | - | - |
| 1777416323 | 22.78° C | 85% | 0 hPa | 0 mm | - | - | - |
| 1777415423 | 23.33° C | 85% | 0 hPa | 0 mm | - | - | - |
* Rain latest hour (hover to see other rain measurements)
** Current wind speed in m/s (hover to see current wind gust speed)